Time,TemperatureF,DewpointF,PressureIn,WindDirection,WindDirectionDegrees,WindSpeedMPH,WindSpeedGustMPH,Humidity,HourlyPrecipIn,Conditions,Clouds,dailyrainin,SoftwareType,DateUTC
2013-03-30 00:00:00,47.0,20.7,30.19,East,90,0.0,6.0,35,0.00,,,0.00,Weather View 32 v70,2013-03-30 06:00:00,
2013-03-30 00:05:00,47.0,22.7,30.19,East,90,0.0,6.0,38,0.00,,,0.00,Weather View 32 v70,2013-03-30 06:05:00,
2013-03-30 00:10:00,47.0,22.7,30.19,East,90,0.0,6.0,38,0.00,,,0.00,Weather View 32 v70,2013-03-30 06:10:00,
2013-03-30 00:15:00,46.0,21.8,30.19,East,90,0.0,4.0,38,0.00,,,0.00,Weather View 32 v70,2013-03-30 06:15:00,
2013-03-30 00:20:00,46.0,21.8,30.19,East,90,0.0,4.0,38,0.00,,,0.00,Weather View 32 v70,2013-03-30 06:20:00,
2013-03-30 00:25:00,45.0,20.9,30.19,East,90,0.0,4.0,38,0.00,,,0.00,Weather View 32 v70,2013-03-30 06:25:00,
2013-03-30 00:30:00,45.0,20.9,30.20,East,90,0.0,3.0,38,0.00,,,0.00,Weather View 32 v70,2013-03-30 06:30:00,
2013-03-30 00:35:00,45.0,22.1,30.20,East,90,3.0,4.0,40,0.00,,,0.00,Weather View 32 v70,2013-03-30 06:35:00,
2013-03-30 00:40:00,45.0,22.7,30.20,East,90,3.0,5.0,41,0.00,,,0.00,Weather View 32 v70,2013-03-30 06:40:00,
2013-03-30 00:45:00,44.0,22.3,30.20,ESE,112,0.0,5.0,42,0.00,,,0.00,Weather View 32 v70,2013-03-30 06:45:00,
2013-03-30 00:50:00,44.0,21.8,30.20,ESE,112,0.0,5.0,41,0.00,,,0.00,Weather View 32 v70,2013-03-30 06:50:00,
2013-03-30 00:55:00,43.0,22.5,30.20,ESE,112,1.0,5.0,44,0.00,,,0.00,Weather View 32 v70,2013-03-30 06:55:00,
2013-03-30 01:00:00,43.0,21.4,30.20,ESE,112,0.0,5.0,42,0.00,,,0.00,Weather View 32 v70,2013-03-30 07:00:00,
2013-03-30 01:05:00,43.0,21.4,30.20,ESE,112,0.0,5.0,42,0.00,,,0.00,Weather View 32 v70,2013-03-30 07:05:00,
2013-03-30 01:10:00,43.0,21.4,30.20,ESE,112,0.0,5.0,42,0.00,,,0.00,Weather View 32 v70,2013-03-30 07:10:00,
2013-03-30 01:15:00,42.0,21.1,30.20,ESE,112,0.0,5.0,43,0.00,,,0.00,Weather View 32 v70,2013-03-30 07:15:00,
2013-03-30 01:20:00,42.0,21.1,30.20,ESE,112,0.0,5.0,43,0.00,,,0.00,Weather View 32 v70,2013-03-30 07:20:00,
2013-03-30 01:25:00,42.0,21.6,30.20,ESE,112,3.0,5.0,44,0.00,,,0.00,Weather View 32 v70,2013-03-30 07:25:00,
2013-03-30 01:30:00,42.0,21.6,30.20,East,90,4.0,6.0,44,0.00,,,0.00,Weather View 32 v70,2013-03-30 07:30:00,
2013-03-30 01:35:00,41.0,20.7,30.20,East,90,4.0,6.0,44,0.00,,,0.00,Weather View 32 v70,2013-03-30 07:35:00,
2013-03-30 01:41:00,41.0,20.7,30.20,East,90,5.0,6.0,44,0.00,,,0.00,Weather View 32 v70,2013-03-30 07:41:00,
2013-03-30 01:46:00,41.0,21.3,30.20,East,90,6.0,6.0,45,0.00,,,0.00,Weather View 32 v70,2013-03-30 07:46:00,
2013-03-30 01:51:00,41.0,21.3,30.20,East,90,6.0,8.0,45,0.00,,,0.00,Weather View 32 v70,2013-03-30 07:51:00,
2013-03-30 01:56:00,41.0,21.3,30.20,East,90,6.0,8.0,45,0.00,,,0.00,Weather View 32 v70,2013-03-30 07:56:00,
2013-03-30 02:01:00,41.0,20.7,30.20,East,90,6.0,8.0,44,0.00,,,0.00,Weather View 32 v70,2013-03-30 08:01:00,
2013-03-30 02:06:00,41.0,20.7,30.20,ENE,67,6.0,8.0,44,0.00,,,0.00,Weather View 32 v70,2013-03-30 08:06:00,
2013-03-30 02:11:00,41.0,20.2,30.20,ENE,67,4.0,8.0,43,0.00,,,0.00,Weather View 32 v70,2013-03-30 08:11:00,
2013-03-30 02:16:00,41.0,20.2,30.20,ENE,67,6.0,9.0,43,0.00,,,0.00,Weather View 32 v70,2013-03-30 08:16:00,
2013-03-30 02:21:00,41.0,20.2,30.20,ENE,67,2.0,9.0,43,0.00,,,0.00,Weather View 32 v70,2013-03-30 08:21:00,
2013-03-30 02:27:00,40.0,19.8,30.20,ENE,67,3.0,9.0,44,0.00,,,0.00,Weather View 32 v70,2013-03-30 08:27:00,
2013-03-30 02:32:00,40.0,19.8,30.20,ENE,67,3.0,9.0,44,0.00,,,0.00,Weather View 32 v70,2013-03-30 08:32:00,
2013-03-30 02:37:00,40.0,20.9,30.20,East,90,6.0,9.0,46,0.00,,,0.00,Weather View 32 v70,2013-03-30 08:37:00,
2013-03-30 02:42:00,40.0,20.9,30.20,East,90,6.0,9.0,46,0.00,,,0.00,Weather View 32 v70,2013-03-30 08:42:00,
2013-03-30 02:47:00,40.0,20.9,30.20,East,90,2.0,9.0,46,0.00,,,0.00,Weather View 32 v70,2013-03-30 08:47:00,
2013-03-30 02:52:00,39.0,19.9,30.21,East,90,0.0,9.0,46,0.00,,,0.00,Weather View 32 v70,2013-03-30 08:52:00,
2013-03-30 02:57:00,39.0,21.4,30.21,East,90,3.0,9.0,49,0.00,,,0.00,Weather View 32 v70,2013-03-30 08:57:00,
2013-03-30 03:02:00,39.0,22.4,30.21,East,90,4.0,9.0,51,0.00,,,0.00,Weather View 32 v70,2013-03-30 09:02:00,
2013-03-30 03:07:00,38.0,21.5,30.21,East,90,5.0,9.0,51,0.00,,,0.00,Weather View 32 v70,2013-03-30 09:07:00,
2013-03-30 03:12:00,38.0,21.5,30.20,East,90,4.0,9.0,51,0.00,,,0.00,Weather View 32 v70,2013-03-30 09:12:00,
2013-03-30 03:17:00,38.0,21.9,30.20,East,90,4.0,8.0,52,0.00,,,0.00,Weather View 32 v70,2013-03-30 09:17:00,
2013-03-30 03:22:00,38.0,21.9,30.20,East,90,2.0,8.0,52,0.00,,,0.00,Weather View 32 v70,2013-03-30 09:22:00,
2013-03-30 03:27:00,37.0,21.4,30.20,East,90,3.0,8.0,53,0.00,,,0.00,Weather View 32 v70,2013-03-30 09:27:00,
2013-03-30 03:32:00,37.0,21.0,30.21,ENE,67,6.0,8.0,52,0.00,,,0.00,Weather View 32 v70,2013-03-30 09:32:00,
2013-03-30 03:34:00,37.0,20.5,30.21,NE,45,5.0,8.0,51,0.00,,,0.00,Weather View 32 v70,2013-03-30 09:34:00,
2013-03-30 03:39:00,38.0,21.5,30.21,NE,45,3.0,8.0,51,0.00,,,0.00,Weather View 32 v70,2013-03-30 09:39:00,
2013-03-30 03:44:00,38.0,21.5,30.21,NE,45,3.0,7.0,51,0.00,,,0.00,Weather View 32 v70,2013-03-30 09:44:00,
2013-03-30 03:49:00,37.0,20.5,30.21,ENE,67,3.0,7.0,51,0.00,,,0.00,Weather View 32 v70,2013-03-30 09:49:00,
2013-03-30 03:54:00,37.0,21.0,30.21,East,90,3.0,7.0,52,0.00,,,0.00,Weather View 32 v70,2013-03-30 09:54:00,
2013-03-30 03:59:00,37.0,21.4,30.21,East,90,2.0,7.0,53,0.00,,,0.00,Weather View 32 v70,2013-03-30 09:59:00,
2013-03-30 04:04:00,37.0,21.4,30.21,East,90,0.0,7.0,53,0.00,,,0.00,Weather View 32 v70,2013-03-30 10:04:00,
2013-03-30 04:09:00,36.0,21.0,30.21,East,90,3.0,7.0,54,0.00,,,0.00,Weather View 32 v70,2013-03-30 10:09:00,
2013-03-30 04:14:00,36.0,21.4,30.21,East,90,3.0,7.0,55,0.00,,,0.00,Weather View 32 v70,2013-03-30 10:14:00,
2013-03-30 04:19:00,36.0,21.8,30.21,East,90,3.0,7.0,56,0.00,,,0.00,Weather View 32 v70,2013-03-30 10:19:00,
2013-03-30 04:24:00,36.0,21.8,30.21,East,90,4.0,7.0,56,0.00,,,0.00,Weather View 32 v70,2013-03-30 10:24:00,
2013-03-30 04:29:00,36.0,21.4,30.21,East,90,3.0,7.0,55,0.00,,,0.00,Weather View 32 v70,2013-03-30 10:29:00,
2013-03-30 04:35:00,36.0,21.8,30.21,East,90,3.0,6.0,56,0.00,,,0.00,Weather View 32 v70,2013-03-30 10:35:00,
2013-03-30 04:40:00,36.0,21.0,30.20,ENE,67,5.0,6.0,54,0.00,,,0.00,Weather View 32 v70,2013-03-30 10:40:00,
2013-03-30 04:45:00,36.0,20.5,30.20,ENE,67,4.0,6.0,53,0.00,,,0.00,Weather View 32 v70,2013-03-30 10:45:00,
2013-03-30 04:50:00,36.0,20.5,30.21,ENE,67,0.0,6.0,53,0.00,,,0.00,Weather View 32 v70,2013-03-30 10:50:00,
2013-03-30 04:55:00,36.0,21.0,30.21,ENE,67,1.0,6.0,54,0.00,,,0.00,Weather View 32 v70,2013-03-30 10:55:00,
2013-03-30 05:00:00,36.0,21.4,30.21,ENE,67,0.0,6.0,55,0.00,,,0.00,Weather View 32 v70,2013-03-30 11:00:00,
2013-03-30 05:05:00,35.0,21.7,30.21,ENE,67,3.0,6.0,58,0.00,,,0.00,Weather View 32 v70,2013-03-30 11:05:00,
2013-03-30 05:10:00,35.0,21.7,30.21,ENE,67,5.0,6.0,58,0.00,,,0.00,Weather View 32 v70,2013-03-30 11:10:00,
2013-03-30 05:15:00,35.0,21.3,30.21,ENE,67,4.0,6.0,57,0.00,,,0.00,Weather View 32 v70,2013-03-30 11:15:00,
2013-03-30 05:20:00,35.0,20.9,30.21,ENE,67,6.0,6.0,56,0.00,,,0.00,Weather View 32 v70,2013-03-30 11:20:00,
2013-03-30 05:25:00,35.0,20.9,30.21,ENE,67,4.0,6.0,56,0.00,,,0.00,Weather View 32 v70,2013-03-30 11:25:00,
2013-03-30 05:30:00,35.0,21.3,30.21,East,90,4.0,6.0,57,0.00,,,0.00,Weather View 32 v70,2013-03-30 11:30:00,
2013-03-30 05:35:00,35.0,21.7,30.21,East,90,4.0,6.0,58,0.00,,,0.00,Weather View 32 v70,2013-03-30 11:35:00,
2013-03-30 05:40:00,35.0,22.1,30.22,East,90,1.0,6.0,59,0.00,,,0.00,Weather View 32 v70,2013-03-30 11:40:00,
2013-03-30 05:45:00,34.0,21.6,30.22,East,90,3.0,6.0,60,0.00,,,0.00,Weather View 32 v70,2013-03-30 11:45:00,
2013-03-30 05:50:00,34.0,21.6,30.22,East,90,2.0,6.0,60,0.00,,,0.00,Weather View 32 v70,2013-03-30 11:50:00,
2013-03-30 05:57:00,34.0,22.0,30.22,East,90,6.0,6.0,61,0.00,,,0.00,Weather View 32 v70,2013-03-30 11:57:00,
2013-03-30 06:02:00,34.0,21.6,30.22,ENE,67,6.0,7.0,60,0.00,,,0.00,Weather View 32 v70,2013-03-30 12:02:00,
2013-03-30 06:07:00,34.0,21.2,30.22,ENE,67,6.0,7.0,59,0.00,,,0.00,Weather View 32 v70,2013-03-30 12:07:00,
2013-03-30 06:12:00,34.0,21.6,30.22,East,90,5.0,7.0,60,0.00,,,0.00,Weather View 32 v70,2013-03-30 12:12:00,
2013-03-30 06:17:00,34.0,21.6,30.22,East,90,5.0,7.0,60,0.00,,,0.00,Weather View 32 v70,2013-03-30 12:17:00,
2013-03-30 06:22:00,34.0,21.6,30.23,East,90,5.0,7.0,60,0.00,,,0.00,Weather View 32 v70,2013-03-30 12:22:00,
2013-03-30 06:27:00,35.0,22.5,30.23,East,90,4.0,7.0,60,0.00,,,0.00,Weather View 32 v70,2013-03-30 12:27:00,
2013-03-30 06:32:00,35.0,22.5,30.23,East,90,3.0,7.0,60,0.00,,,0.00,Weather View 32 v70,2013-03-30 12:32:00,
2013-03-30 06:37:00,34.0,21.6,30.23,East,90,4.0,7.0,60,0.00,,,0.00,Weather View 32 v70,2013-03-30 12:37:00,
2013-03-30 06:42:00,34.0,21.6,30.23,East,90,4.0,7.0,60,0.00,,,0.00,Weather View 32 v70,2013-03-30 12:42:00,
2013-03-30 06:47:00,34.0,21.6,30.23,East,90,4.0,7.0,60,0.00,,,0.00,Weather View 32 v70,2013-03-30 12:47:00,
2013-03-30 06:52:00,34.0,21.6,30.23,East,90,4.0,7.0,60,0.00,,,0.00,Weather View 32 v70,2013-03-30 12:52:00,
2013-03-30 06:57:00,34.0,21.2,30.23,ENE,67,4.0,7.0,59,0.00,,,0.00,Weather View 32 v70,2013-03-30 12:57:00,
2013-03-30 07:02:00,34.0,21.6,30.23,ENE,67,6.0,7.0,60,0.00,,,0.00,Weather View 32 v70,2013-03-30 13:02:00,
2013-03-30 07:07:00,34.0,21.2,30.23,ENE,67,3.0,7.0,59,0.00,,,0.00,Weather View 32 v70,2013-03-30 13:07:00,
2013-03-30 07:12:00,34.0,21.2,30.24,ENE,67,3.0,7.0,59,0.00,,,0.00,Weather View 32 v70,2013-03-30 13:12:00,
2013-03-30 07:17:00,34.0,20.8,30.24,ENE,67,3.0,7.0,58,0.00,,,0.00,Weather View 32 v70,2013-03-30 13:17:00,
2013-03-30 07:22:00,35.0,20.9,30.24,ENE,67,4.0,7.0,56,0.00,,,0.00,Weather View 32 v70,2013-03-30 13:22:00,
2013-03-30 07:27:00,35.0,20.5,30.24,ENE,67,4.0,7.0,55,0.00,,,0.00,Weather View 32 v70,2013-03-30 13:27:00,
2013-03-30 07:32:00,36.0,20.5,30.24,ENE,67,5.0,7.0,53,0.00,,,0.00,Weather View 32 v70,2013-03-30 13:32:00,
2013-03-30 07:37:00,36.0,20.1,30.24,East,90,4.0,7.0,52,0.00,,,0.00,Weather View 32 v70,2013-03-30 13:37:00,
2013-03-30 07:42:00,37.0,21.0,30.24,ENE,67,7.0,8.0,52,0.00,,,0.00,Weather View 32 v70,2013-03-30 13:42:00,
2013-03-30 07:47:00,37.0,20.5,30.24,ENE,67,6.0,8.0,51,0.00,,,0.00,Weather View 32 v70,2013-03-30 13:47:00,
2013-03-30 07:52:00,38.0,20.5,30.24,ENE,67,5.0,8.0,49,0.00,,,0.00,Weather View 32 v70,2013-03-30 13:52:00,
2013-03-30 07:58:00,39.0,20.5,30.24,East,90,6.0,8.0,47,0.00,,,0.00,Weather View 32 v70,2013-03-30 13:58:00,
2013-03-30 08:03:00,39.0,19.9,30.24,East,90,5.0,8.0,46,0.00,,,0.00,Weather View 32 v70,2013-03-30 14:03:00,
2013-03-30 08:08:00,40.0,20.9,30.24,East,90,7.0,9.0,46,0.00,,,0.00,Weather View 32 v70,2013-03-30 14:08:00,
2013-03-30 08:13:00,40.0,20.3,30.23,East,90,8.0,9.0,45,0.00,,,0.00,Weather View 32 v70,2013-03-30 14:13:00,
2013-03-30 08:18:00,41.0,20.7,30.23,East,90,6.0,10.0,44,0.00,,,0.00,Weather View 32 v70,2013-03-30 14:18:00,
2013-03-30 08:23:00,41.0,20.7,30.23,East,90,6.0,10.0,44,0.00,,,0.00,Weather View 32 v70,2013-03-30 14:23:00,
2013-03-30 08:28:00,41.0,20.2,30.23,East,90,6.0,10.0,43,0.00,,,0.00,Weather View 32 v70,2013-03-30 14:28:00,
2013-03-30 08:33:00,42.0,20.5,30.23,East,90,10.0,10.0,42,0.00,,,0.00,Weather View 32 v70,2013-03-30 14:33:00,
2013-03-30 08:38:00,42.0,20.5,30.23,East,90,8.0,10.0,42,0.00,,,0.00,Weather View 32 v70,2013-03-30 14:38:00,
2013-03-30 08:43:00,42.0,20.0,30.23,SE,135,6.0,10.0,41,0.00,,,0.00,Weather View 32 v70,2013-03-30 14:43:00,
2013-03-30 08:48:00,43.0,20.9,30.23,SE,135,6.0,10.0,41,0.00,,,0.00,Weather View 32 v70,2013-03-30 14:48:00,
2013-03-30 08:53:00,43.0,20.3,30.22,ESE,112,5.0,10.0,40,0.00,,,0.00,Weather View 32 v70,2013-03-30 14:53:00,
2013-03-30 08:58:00,44.0,21.2,30.22,East,90,6.0,10.0,40,0.00,,,0.00,Weather View 32 v70,2013-03-30 14:58:00,
2013-03-30 09:03:00,45.0,21.5,30.22,East,90,6.0,10.0,39,0.00,,,0.00,Weather View 32 v70,2013-03-30 15:03:00,
2013-03-30 09:08:00,45.0,20.9,30.22,ESE,112,5.0,10.0,38,0.00,,,0.00,Weather View 32 v70,2013-03-30 15:08:00,
2013-03-30 09:13:00,46.0,21.1,30.22,ESE,112,7.0,10.0,37,0.00,,,0.00,Weather View 32 v70,2013-03-30 15:13:00,
2013-03-30 09:18:00,46.0,21.1,30.22,East,90,7.0,10.0,37,0.00,,,0.00,Weather View 32 v70,2013-03-30 15:18:00,
2013-03-30 09:23:00,47.0,21.4,30.21,East,90,6.0,10.0,36,0.00,,,0.00,Weather View 32 v70,2013-03-30 15:23:00,
2013-03-30 09:28:00,48.0,21.6,30.21,SE,135,4.0,10.0,35,0.00,,,0.00,Weather View 32 v70,2013-03-30 15:28:00,
2013-03-30 09:33:00,48.0,20.2,30.21,ESE,112,4.0,10.0,33,0.00,,,0.00,Weather View 32 v70,2013-03-30 15:33:00,
2013-03-30 09:38:00,49.0,21.1,30.21,SE,135,4.0,10.0,33,0.00,,,0.00,Weather View 32 v70,2013-03-30 15:38:00,
2013-03-30 09:43:00,50.0,22.0,30.20,SE,135,7.0,10.0,33,0.00,,,0.00,Weather View 32 v70,2013-03-30 15:43:00,
2013-03-30 09:48:00,50.0,21.2,30.20,SSE,157,2.0,10.0,32,0.00,,,0.00,Weather View 32 v70,2013-03-30 15:48:00,
2013-03-30 09:53:00,51.0,22.9,30.21,East,90,7.0,10.0,33,0.00,,,0.00,Weather View 32 v70,2013-03-30 15:53:00,
2013-03-30 09:58:00,51.0,22.1,30.21,SE,135,5.0,10.0,32,0.00,,,0.00,Weather View 32 v70,2013-03-30 15:58:00,
2013-03-30 10:03:00,52.0,22.2,30.20,SE,135,2.0,10.0,31,0.00,,,0.00,Weather View 32 v70,2013-03-30 16:03:00,
2013-03-30 10:08:00,53.0,23.1,30.20,SSE,157,5.0,10.0,31,0.00,,,0.00,Weather View 32 v70,2013-03-30 16:08:00,
2013-03-30 10:13:00,53.0,23.1,30.20,SSE,157,9.0,10.0,31,0.00,,,0.00,Weather View 32 v70,2013-03-30 16:13:00,
2013-03-30 10:18:00,54.0,24.0,30.20,South,180,1.0,10.0,31,0.00,,,0.00,Weather View 32 v70,2013-03-30 16:18:00,
2013-03-30 10:23:00,55.0,23.3,30.19,SE,135,1.0,10.0,29,0.00,,,0.00,Weather View 32 v70,2013-03-30 16:23:00,
2013-03-30 10:28:00,56.0,24.1,30.19,SE,135,5.0,12.0,29,0.00,,,0.00,Weather View 32 v70,2013-03-30 16:28:00,
2013-03-30 10:33:00,56.0,23.3,30.19,South,180,3.0,12.0,28,0.00,,,0.00,Weather View 32 v70,2013-03-30 16:33:00,
2013-03-30 10:38:00,57.0,23.3,30.19,East,90,8.0,12.0,27,0.00,,,0.00,Weather View 32 v70,2013-03-30 16:38:00,
2013-03-30 10:43:00,57.0,23.3,30.18,SE,135,3.0,12.0,27,0.00,,,0.00,Weather View 32 v70,2013-03-30 16:43:00,
2013-03-30 10:48:00,58.0,23.2,30.18,South,180,0.0,12.0,26,0.00,,,0.00,Weather View 32 v70,2013-03-30 16:48:00,
2013-03-30 10:53:00,59.0,22.2,30.18,SE,135,4.0,12.0,24,0.00,,,0.00,Weather View 32 v70,2013-03-30 16:53:00,
2013-03-30 10:58:00,60.0,22.0,30.18,SE,135,5.0,12.0,23,0.00,,,0.00,Weather View 32 v70,2013-03-30 16:58:00,
2013-03-30 11:03:00,60.0,22.0,30.18,SSE,157,7.0,12.0,23,0.00,,,0.00,Weather View 32 v70,2013-03-30 17:03:00,
2013-03-30 11:08:00,61.0,22.9,30.18,SE,135,5.0,12.0,23,0.00,,,0.00,Weather View 32 v70,2013-03-30 17:08:00,
2013-03-30 11:13:00,62.0,21.5,30.17,SE,135,5.0,12.0,21,0.00,,,0.00,Weather View 32 v70,2013-03-30 17:13:00,
2013-03-30 11:18:00,62.0,21.5,30.17,SW,225,5.0,12.0,21,0.00,,,0.00,Weather View 32 v70,2013-03-30 17:18:00,
2013-03-30 11:24:00,63.0,21.2,30.17,West,270,5.0,12.0,20,0.00,,,0.00,Weather View 32 v70,2013-03-30 17:24:00,
2013-03-30 11:29:00,64.0,22.0,30.17,SW,225,6.0,10.0,20,0.00,,,0.00,Weather View 32 v70,2013-03-30 17:29:00,
2013-03-30 11:34:00,64.0,20.8,30.16,South,180,0.0,10.0,19,0.00,,,0.00,Weather View 32 v70,2013-03-30 17:34:00,
2013-03-30 11:39:00,65.0,22.9,30.16,NW,315,5.0,10.0,20,0.00,,,0.00,Weather View 32 v70,2013-03-30 17:39:00,
2013-03-30 11:44:00,65.0,22.9,30.16,SSW,202,3.0,10.0,20,0.00,,,0.00,Weather View 32 v70,2013-03-30 17:44:00,
2013-03-30 11:49:00,66.0,21.2,30.16,West,270,7.0,10.0,18,0.00,,,0.00,Weather View 32 v70,2013-03-30 17:49:00,
2013-03-30 11:54:00,66.0,22.5,30.16,West,270,6.0,10.0,19,0.00,,,0.00,Weather View 32 v70,2013-03-30 17:54:00,
2013-03-30 12:00:00,66.0,22.5,30.15,SW,225,3.0,10.0,19,0.00,,,0.00,Weather View 32 v70,2013-03-30 18:00:00,
2013-03-30 12:05:00,66.0,21.2,30.15,West,270,6.0,10.0,18,0.00,,,0.00,Weather View 32 v70,2013-03-30 18:05:00,
2013-03-30 12:09:00,67.0,22.0,30.15,West,270,6.0,10.0,18,0.00,,,0.00,Weather View 32 v70,2013-03-30 18:09:00,
2013-03-30 12:14:00,67.0,22.0,30.15,West,270,5.0,10.0,18,0.00,,,0.00,Weather View 32 v70,2013-03-30 18:14:00,
2013-03-30 12:19:00,67.0,22.0,30.14,West,270,5.0,10.0,18,0.00,,,0.00,Weather View 32 v70,2013-03-30 18:19:00,
2013-03-30 12:25:00,67.0,20.7,30.14,West,270,5.0,10.0,17,0.00,,,0.00,Weather View 32 v70,2013-03-30 18:25:00,
2013-03-30 12:29:00,68.0,22.8,30.14,WSW,247,1.0,11.0,18,0.00,,,0.00,Weather View 32 v70,2013-03-30 18:29:00,
2013-03-30 12:34:00,68.0,21.5,30.14,West,270,8.0,11.0,17,0.00,,,0.00,Weather View 32 v70,2013-03-30 18:34:00,
2013-03-30 12:39:00,68.0,22.8,30.13,NW,315,8.0,11.0,18,0.00,,,0.00,Weather View 32 v70,2013-03-30 18:39:00,
2013-03-30 12:44:00,68.0,21.5,30.13,SW,225,6.0,13.0,17,0.00,,,0.00,Weather View 32 v70,2013-03-30 18:44:00,
2013-03-30 12:49:00,68.0,24.1,30.12,West,270,6.0,13.0,19,0.00,,,0.00,Weather View 32 v70,2013-03-30 18:49:00,
2013-03-30 12:54:00,68.0,21.5,30.12,West,270,11.0,13.0,17,0.00,,,0.00,Weather View 32 v70,2013-03-30 18:54:00,
2013-03-30 12:59:00,69.0,20.8,30.12,WNW,292,10.0,15.0,16,0.00,,,0.00,Weather View 32 v70,2013-03-30 18:59:00,
2013-03-30 13:04:00,69.0,23.6,30.12,SW,225,6.0,15.0,18,0.00,,,0.00,Weather View 32 v70,2013-03-30 19:04:00,
2013-03-30 13:09:00,69.0,20.8,30.12,NNW,337,7.0,15.0,16,0.00,,,0.00,Weather View 32 v70,2013-03-30 19:09:00,
2013-03-30 13:14:00,68.0,21.5,30.12,West,270,7.0,19.0,17,0.00,,,0.00,Weather View 32 v70,2013-03-30 19:14:00,
2013-03-30 13:19:00,68.0,20.0,30.11,West,270,6.0,19.0,16,0.00,,,0.00,Weather View 32 v70,2013-03-30 19:19:00,
2013-03-30 13:24:00,68.0,22.8,30.11,West,270,9.0,19.0,18,0.00,,,0.00,Weather View 32 v70,2013-03-30 19:24:00,
2013-03-30 13:29:00,69.0,16.0,30.10,West,270,14.0,19.0,13,0.00,,,0.00,Weather View 32 v70,2013-03-30 19:29:00,
2013-03-30 13:34:00,68.0,18.5,30.10,NW,315,11.0,21.0,15,0.00,,,0.00,Weather View 32 v70,2013-03-30 19:34:00,
2013-03-30 13:39:00,69.0,23.6,30.11,WNW,292,8.0,21.0,18,0.00,,,0.00,Weather View 32 v70,2013-03-30 19:39:00,
2013-03-30 13:44:00,69.0,20.8,30.11,WSW,247,5.0,21.0,16,0.00,,,0.00,Weather View 32 v70,2013-03-30 19:44:00,
2013-03-30 13:49:00,69.0,20.8,30.09,West,270,9.0,21.0,16,0.00,,,0.00,Weather View 32 v70,2013-03-30 19:49:00,
2013-03-30 13:54:00,69.0,20.8,30.09,West,270,8.0,21.0,16,0.00,,,0.00,Weather View 32 v70,2013-03-30 19:54:00,
2013-03-30 13:59:00,69.0,17.7,30.10,NW,315,14.0,21.0,14,0.00,,,0.00,Weather View 32 v70,2013-03-30 19:59:00,
2013-03-30 14:05:00,69.0,19.3,30.10,West,270,8.0,21.0,15,0.00,,,0.00,Weather View 32 v70,2013-03-30 20:05:00,
2013-03-30 14:10:00,69.0,16.0,30.09,WNW,292,18.0,21.0,13,0.00,,,0.00,Weather View 32 v70,2013-03-30 20:10:00,
2013-03-30 14:15:00,69.0,22.3,30.09,West,270,6.0,21.0,17,0.00,,,0.00,Weather View 32 v70,2013-03-30 20:15:00,
2013-03-30 14:20:00,69.0,16.0,30.08,WNW,292,16.0,21.0,13,0.00,,,0.00,Weather View 32 v70,2013-03-30 20:20:00,
2013-03-30 14:25:00,68.0,22.8,30.08,West,270,5.0,22.0,18,0.00,,,0.00,Weather View 32 v70,2013-03-30 20:25:00,
2013-03-30 14:30:00,69.0,19.3,30.08,West,270,13.0,22.0,15,0.00,,,0.00,Weather View 32 v70,2013-03-30 20:30:00,
2013-03-30 14:34:00,69.0,20.8,30.08,NW,315,7.0,22.0,16,0.00,,,0.00,Weather View 32 v70,2013-03-30 20:34:00,
2013-03-30 14:40:00,69.0,17.7,30.08,WNW,292,15.0,22.0,14,0.00,,,0.00,Weather View 32 v70,2013-03-30 20:40:00,
2013-03-30 14:45:00,69.0,19.3,30.08,WNW,292,5.0,22.0,15,0.00,,,0.00,Weather View 32 v70,2013-03-30 20:45:00,
2013-03-30 14:50:00,69.0,20.8,30.08,NW,315,12.0,22.0,16,0.00,,,0.00,Weather View 32 v70,2013-03-30 20:50:00,
2013-03-30 14:55:00,68.0,21.5,30.08,SW,225,5.0,22.0,17,0.00,,,0.00,Weather View 32 v70,2013-03-30 20:55:00,
2013-03-30 15:00:00,68.0,15.2,30.07,WNW,292,15.0,22.0,13,0.00,,,0.00,Weather View 32 v70,2013-03-30 21:00:00,
2013-03-30 15:05:00,67.0,17.7,30.07,NW,315,10.0,22.0,15,0.00,,,0.00,Weather View 32 v70,2013-03-30 21:05:00,
2013-03-30 15:10:00,67.0,17.7,30.07,WNW,292,7.0,22.0,15,0.00,,,0.00,Weather View 32 v70,2013-03-30 21:10:00,
2013-03-30 15:15:00,67.0,17.7,30.07,West,270,10.0,22.0,15,0.00,,,0.00,Weather View 32 v70,2013-03-30 21:15:00,
2013-03-30 15:20:00,67.0,17.7,30.07,West,270,7.0,22.0,15,0.00,,,0.00,Weather View 32 v70,2013-03-30 21:20:00,
2013-03-30 15:25:00,66.0,13.6,30.07,West,270,11.0,29.0,13,0.00,,,0.00,Weather View 32 v70,2013-03-30 21:25:00,
2013-03-30 15:30:00,67.0,16.1,30.06,West,270,6.0,29.0,14,0.00,,,0.00,Weather View 32 v70,2013-03-30 21:30:00,
2013-03-30 15:35:00,67.0,17.7,30.06,NW,315,8.0,29.0,15,0.00,,,0.00,Weather View 32 v70,2013-03-30 21:35:00,
2013-03-30 15:40:00,67.0,19.2,30.06,West,270,9.0,29.0,16,0.00,,,0.00,Weather View 32 v70,2013-03-30 21:40:00,
2013-03-30 15:45:00,67.0,17.7,30.06,West,270,10.0,29.0,15,0.00,,,0.00,Weather View 32 v70,2013-03-30 21:45:00,
2013-03-30 15:50:00,67.0,16.1,30.06,NW,315,7.0,29.0,14,0.00,,,0.00,Weather View 32 v70,2013-03-30 21:50:00,
2013-03-30 15:55:00,67.0,17.7,30.06,NW,315,13.0,29.0,15,0.00,,,0.00,Weather View 32 v70,2013-03-30 21:55:00,
2013-03-30 16:00:00,67.0,16.1,30.06,West,270,9.0,29.0,14,0.00,,,0.00,Weather View 32 v70,2013-03-30 22:00:00,
2013-03-30 16:05:00,67.0,17.7,30.06,NW,315,12.0,29.0,15,0.00,,,0.00,Weather View 32 v70,2013-03-30 22:05:00,
2013-03-30 16:10:00,67.0,17.7,30.05,NW,315,22.0,29.0,15,0.00,,,0.00,Weather View 32 v70,2013-03-30 22:10:00,
2013-03-30 16:15:00,67.0,16.1,30.05,West,270,11.0,29.0,14,0.00,,,0.00,Weather View 32 v70,2013-03-30 22:15:00,
2013-03-30 16:20:00,68.0,15.2,30.05,West,270,12.0,29.0,13,0.00,,,0.00,Weather View 32 v70,2013-03-30 22:20:00,
2013-03-30 16:25:00,67.0,19.2,30.05,WNW,292,7.0,24.0,16,0.00,,,0.00,Weather View 32 v70,2013-03-30 22:25:00,
2013-03-30 16:30:00,68.0,16.9,30.04,West,270,8.0,24.0,14,0.00,,,0.00,Weather View 32 v70,2013-03-30 22:30:00,
2013-03-30 16:35:00,67.0,14.4,30.04,NW,315,11.0,24.0,13,0.00,,,0.00,Weather View 32 v70,2013-03-30 22:35:00,
2013-03-30 16:40:00,68.0,16.9,30.04,West,270,9.0,24.0,14,0.00,,,0.00,Weather View 32 v70,2013-03-30 22:40:00,
2013-03-30 16:45:00,67.0,14.4,30.04,NW,315,18.0,24.0,13,0.00,,,0.00,Weather View 32 v70,2013-03-30 22:45:00,
2013-03-30 16:50:00,68.0,20.0,30.04,West,270,8.0,24.0,16,0.00,,,0.00,Weather View 32 v70,2013-03-30 22:50:00,
2013-03-30 16:55:00,68.0,15.2,30.04,NW,315,6.0,24.0,13,0.00,,,0.00,Weather View 32 v70,2013-03-30 22:55:00,
2013-03-30 17:00:00,68.0,20.0,30.04,West,270,4.0,24.0,16,0.00,,,0.00,Weather View 32 v70,2013-03-30 23:00:00,
2013-03-30 17:05:00,68.0,15.2,30.04,West,270,10.0,27.0,13,0.00,,,0.00,Weather View 32 v70,2013-03-30 23:05:00,
2013-03-30 17:10:00,68.0,16.9,30.04,WNW,292,11.0,27.0,14,0.00,,,0.00,Weather View 32 v70,2013-03-30 23:10:00,
2013-03-30 17:15:00,67.0,16.1,30.04,West,270,10.0,27.0,14,0.00,,,0.00,Weather View 32 v70,2013-03-30 23:15:00,
2013-03-30 17:20:00,67.0,14.4,30.04,West,270,11.0,27.0,13,0.00,,,0.00,Weather View 32 v70,2013-03-30 23:20:00,
2013-03-30 17:25:00,67.0,19.2,30.04,NW,315,23.0,27.0,16,0.00,,,0.00,Weather View 32 v70,2013-03-30 23:25:00,
2013-03-30 17:30:00,67.0,14.4,30.04,WNW,292,14.0,27.0,13,0.00,,,0.00,Weather View 32 v70,2013-03-30 23:30:00,
2013-03-30 17:35:00,67.0,16.1,30.04,West,270,11.0,27.0,14,0.00,,,0.00,Weather View 32 v70,2013-03-30 23:35:00,
2013-03-30 17:40:00,67.0,16.1,30.04,West,270,9.0,27.0,14,0.00,,,0.00,Weather View 32 v70,2013-03-30 23:40:00,
2013-03-30 17:45:00,66.0,16.9,30.04,NW,315,9.0,27.0,15,0.00,,,0.00,Weather View 32 v70,2013-03-30 23:45:00,
2013-03-30 17:50:00,67.0,14.4,30.04,West,270,11.0,27.0,13,0.00,,,0.00,Weather View 32 v70,2013-03-30 23:50:00,
2013-03-30 17:55:00,66.0,13.6,30.04,West,270,11.0,27.0,13,0.00,,,0.00,Weather View 32 v70,2013-03-30 23:55:00,
2013-03-30 18:00:00,66.0,16.9,30.04,West,270,10.0,27.0,15,0.00,,,0.00,Weather View 32 v70,2013-03-31 00:00:00,
2013-03-30 18:05:00,66.0,16.9,30.04,WNW,292,10.0,26.0,15,0.00,,,0.00,Weather View 32 v70,2013-03-31 00:05:00,
2013-03-30 18:10:00,66.0,18.4,30.04,WNW,292,13.0,26.0,16,0.00,,,0.00,Weather View 32 v70,2013-03-31 00:10:00,
2013-03-30 18:15:00,65.0,16.1,30.04,WNW,292,8.0,26.0,15,0.00,,,0.00,Weather View 32 v70,2013-03-31 00:15:00,
2013-03-30 18:20:00,66.0,18.4,30.04,West,270,10.0,26.0,16,0.00,,,0.00,Weather View 32 v70,2013-03-31 00:20:00,
2013-03-30 18:25:00,65.0,16.1,30.04,West,270,10.0,26.0,15,0.00,,,0.00,Weather View 32 v70,2013-03-31 00:25:00,
2013-03-30 18:30:00,65.0,17.6,30.04,WSW,247,13.0,26.0,16,0.00,,,0.00,Weather View 32 v70,2013-03-31 00:30:00,
2013-03-30 18:35:00,65.0,17.6,30.04,West,270,10.0,26.0,16,0.00,,,0.00,Weather View 32 v70,2013-03-31 00:35:00,
2013-03-30 18:40:00,65.0,16.1,30.04,West,270,8.0,26.0,15,0.00,,,0.00,Weather View 32 v70,2013-03-31 00:40:00,
2013-03-30 18:45:00,65.0,17.6,30.04,West,270,10.0,23.0,16,0.00,,,0.00,Weather View 32 v70,2013-03-31 00:45:00,
2013-03-30 18:50:00,65.0,17.6,30.05,West,270,7.0,20.0,16,0.00,,,0.00,Weather View 32 v70,2013-03-31 00:50:00,
2013-03-30 18:55:00,64.0,16.8,30.05,NW,315,8.0,20.0,16,0.00,,,0.00,Weather View 32 v70,2013-03-31 00:55:00,
2013-03-30 19:00:00,64.0,16.8,30.05,West,270,8.0,20.0,16,0.00,,,0.00,Weather View 32 v70,2013-03-31 01:00:00,
2013-03-30 19:05:00,64.0,18.2,30.05,WNW,292,8.0,20.0,17,0.00,,,0.00,Weather View 32 v70,2013-03-31 01:05:00,
2013-03-30 19:10:00,64.0,19.6,30.05,West,270,10.0,20.0,18,0.00,,,0.00,Weather View 32 v70,2013-03-31 01:10:00,
2013-03-30 19:15:00,63.0,18.7,30.05,West,270,8.0,19.0,18,0.00,,,0.00,Weather View 32 v70,2013-03-31 01:15:00,
2013-03-30 19:20:00,63.0,18.7,30.05,West,270,4.0,19.0,18,0.00,,,0.00,Weather View 32 v70,2013-03-31 01:20:00,
2013-03-30 19:25:00,63.0,18.7,30.05,West,270,9.0,19.0,18,0.00,,,0.00,Weather View 32 v70,2013-03-31 01:25:00,
2013-03-30 19:30:00,63.0,20.0,30.06,NW,315,9.0,19.0,19,0.00,,,0.00,Weather View 32 v70,2013-03-31 01:30:00,
2013-03-30 19:35:00,62.0,17.9,30.06,WSW,247,7.0,19.0,18,0.00,,,0.00,Weather View 32 v70,2013-03-31 01:35:00,
2013-03-30 19:40:00,62.0,17.9,30.06,West,270,5.0,19.0,18,0.00,,,0.00,Weather View 32 v70,2013-03-31 01:40:00,
2013-03-30 19:45:00,62.0,17.9,30.06,WNW,292,5.0,19.0,18,0.00,,,0.00,Weather View 32 v70,2013-03-31 01:45:00,
2013-03-30 19:50:00,62.0,19.2,30.06,West,270,5.0,19.0,19,0.00,,,0.00,Weather View 32 v70,2013-03-31 01:50:00,
2013-03-30 19:55:00,61.0,18.4,30.06,West,270,7.0,19.0,19,0.00,,,0.00,Weather View 32 v70,2013-03-31 01:55:00,
2013-03-30 20:00:00,61.0,18.4,30.07,West,270,6.0,19.0,19,0.00,,,0.00,Weather View 32 v70,2013-03-31 02:00:00,
2013-03-30 20:05:00,61.0,19.6,30.07,NW,315,6.0,19.0,20,0.00,,,0.00,Weather View 32 v70,2013-03-31 02:05:00,
2013-03-30 20:10:00,61.0,18.4,30.07,NW,315,8.0,19.0,19,0.00,,,0.00,Weather View 32 v70,2013-03-31 02:10:00,
2013-03-30 20:15:00,60.0,17.5,30.07,NW,315,6.0,19.0,19,0.00,,,0.00,Weather View 32 v70,2013-03-31 02:15:00,
2013-03-30 20:20:00,60.0,17.5,30.07,West,270,5.0,13.0,19,0.00,,,0.00,Weather View 32 v70,2013-03-31 02:20:00,
2013-03-30 20:25:00,60.0,18.7,30.07,NW,315,4.0,12.0,20,0.00,,,0.00,Weather View 32 v70,2013-03-31 02:25:00,
2013-03-30 20:30:00,60.0,17.5,30.08,NW,315,4.0,12.0,19,0.00,,,0.00,Weather View 32 v70,2013-03-31 02:30:00,
2013-03-30 20:35:00,59.0,17.9,30.08,NW,315,2.0,11.0,20,0.00,,,0.00,Weather View 32 v70,2013-03-31 02:35:00,
2013-03-30 20:40:00,59.0,19.0,30.08,NW,315,3.0,11.0,21,0.00,,,0.00,Weather View 32 v70,2013-03-31 02:40:00,
2013-03-30 20:45:00,58.0,18.2,30.08,NW,315,2.0,11.0,21,0.00,,,0.00,Weather View 32 v70,2013-03-31 02:45:00,
2013-03-30 20:50:00,58.0,20.3,30.08,NW,315,4.0,11.0,23,0.00,,,0.00,Weather View 32 v70,2013-03-31 02:50:00,
2013-03-30 20:55:00,58.0,20.3,30.08,NNW,337,4.0,11.0,23,0.00,,,0.00,Weather View 32 v70,2013-03-31 02:55:00,
2013-03-30 21:00:00,58.0,20.3,30.09,North,360,3.0,11.0,23,0.00,,,0.00,Weather View 32 v70,2013-03-31 03:00:00,
2013-03-30 21:05:00,57.0,19.5,30.09,North,360,3.0,11.0,23,0.00,,,0.00,Weather View 32 v70,2013-03-31 03:05:00,
2013-03-30 21:10:00,57.0,20.5,30.10,North,360,3.0,10.0,24,0.00,,,0.00,Weather View 32 v70,2013-03-31 03:10:00,
2013-03-30 21:15:00,57.0,20.5,30.10,North,360,2.0,9.0,24,0.00,,,0.00,Weather View 32 v70,2013-03-31 03:15:00,
2013-03-30 21:20:00,57.0,21.5,30.10,North,360,2.0,9.0,25,0.00,,,0.00,Weather View 32 v70,2013-03-31 03:20:00,
2013-03-30 21:25:00,56.0,21.5,30.10,North,360,2.0,6.0,26,0.00,,,0.00,Weather View 32 v70,2013-03-31 03:25:00,
2013-03-30 21:30:00,56.0,21.5,30.10,North,360,0.0,6.0,26,0.00,,,0.00,Weather View 32 v70,2013-03-31 03:30:00,
2013-03-30 21:35:00,55.0,21.6,30.10,SW,225,4.0,7.0,27,0.00,,,0.00,Weather View 32 v70,2013-03-31 03:35:00,
2013-03-30 21:40:00,55.0,20.7,30.10,SW,225,4.0,7.0,26,0.00,,,0.00,Weather View 32 v70,2013-03-31 03:40:00,
2013-03-30 21:45:00,55.0,20.7,30.10,SW,225,2.0,7.0,26,0.00,,,0.00,Weather View 32 v70,2013-03-31 03:45:00,
2013-03-30 21:50:00,54.0,19.8,30.10,SW,225,0.0,7.0,26,0.00,,,0.00,Weather View 32 v70,2013-03-31 03:50:00,
2013-03-30 21:55:00,54.0,20.7,30.10,SW,225,0.0,7.0,27,0.00,,,0.00,Weather View 32 v70,2013-03-31 03:55:00,
2013-03-30 22:00:00,54.0,20.7,30.11,WSW,247,0.0,7.0,27,0.00,,,0.00,Weather View 32 v70,2013-03-31 04:00:00,
2013-03-30 22:05:00,53.0,19.9,30.11,WSW,247,1.0,7.0,27,0.00,,,0.00,Weather View 32 v70,2013-03-31 04:05:00,
2013-03-30 22:10:00,53.0,19.0,30.11,WSW,247,2.0,7.0,26,0.00,,,0.00,Weather View 32 v70,2013-03-31 04:10:00,
2013-03-30 22:15:00,53.0,20.7,30.11,West,270,3.0,7.0,28,0.00,,,0.00,Weather View 32 v70,2013-03-31 04:15:00,
2013-03-30 22:20:00,53.0,19.9,30.11,West,270,2.0,7.0,27,0.00,,,0.00,Weather View 32 v70,2013-03-31 04:20:00,
2013-03-30 22:25:00,52.0,19.0,30.11,West,270,3.0,7.0,27,0.00,,,0.00,Weather View 32 v70,2013-03-31 04:25:00,
2013-03-30 22:30:00,52.0,19.8,30.10,West,270,1.0,7.0,28,0.00,,,0.00,Weather View 32 v70,2013-03-31 04:30:00,
2013-03-30 22:35:00,52.0,19.8,30.10,West,270,3.0,7.0,28,0.00,,,0.00,Weather View 32 v70,2013-03-31 04:35:00,
2013-03-30 22:40:00,52.0,19.0,30.11,West,270,1.0,6.0,27,0.00,,,0.00,Weather View 32 v70,2013-03-31 04:40:00,
2013-03-30 22:45:00,52.0,19.8,30.11,West,270,2.0,4.0,28,0.00,,,0.00,Weather View 32 v70,2013-03-31 04:45:00,
2013-03-30 22:50:00,52.0,19.8,30.11,West,270,1.0,4.0,28,0.00,,,0.00,Weather View 32 v70,2013-03-31 04:50:00,
2013-03-30 22:55:00,52.0,19.8,30.11,West,270,2.0,4.0,28,0.00,,,0.00,Weather View 32 v70,2013-03-31 04:55:00,
2013-03-30 23:00:00,52.0,20.7,30.11,West,270,0.0,4.0,29,0.00,,,0.00,Weather View 32 v70,2013-03-31 05:00:00,
2013-03-30 23:05:00,51.0,19.8,30.11,West,270,0.0,4.0,29,0.00,,,0.00,Weather View 32 v70,2013-03-31 05:05:00,
2013-03-30 23:10:00,51.0,21.4,30.11,NW,315,5.0,5.0,31,0.00,,,0.00,Weather View 32 v70,2013-03-31 05:10:00,
2013-03-30 23:15:00,51.0,20.6,30.11,North,360,14.0,14.0,30,0.00,,,0.00,Weather View 32 v70,2013-03-31 05:15:00,
2013-03-30 23:20:00,51.0,19.8,30.11,North,360,9.0,14.0,29,0.00,,,0.00,Weather View 32 v70,2013-03-31 05:20:00,
2013-03-30 23:25:00,51.0,21.4,30.11,North,360,4.0,14.0,31,0.00,,,0.00,Weather View 32 v70,2013-03-31 05:25:00,
2013-03-30 23:30:00,51.0,21.4,30.11,North,360,5.0,14.0,31,0.00,,,0.00,Weather View 32 v70,2013-03-31 05:30:00,
2013-03-30 23:35:00,51.0,21.4,30.11,NNW,337,6.0,14.0,31,0.00,,,0.00,Weather View 32 v70,2013-03-31 05:35:00,
2013-03-30 23:40:00,51.0,21.4,30.11,NW,315,4.0,14.0,31,0.00,,,0.00,Weather View 32 v70,2013-03-31 05:40:00,
2013-03-30 23:45:00,50.0,19.7,30.11,NNW,337,4.0,14.0,30,0.00,,,0.00,Weather View 32 v70,2013-03-31 05:45:00,
2013-03-30 23:50:00,50.0,19.7,30.12,NNW,337,3.0,14.0,30,0.00,,,0.00,Weather View 32 v70,2013-03-31 05:50:00,
2013-03-30 23:55:00,50.0,19.7,30.12,NNW,337,0.0,14.0,30,0.00,,,0.00,Weather View 32 v70,2013-03-31 05:55:00,